This is the latest recevied weather packets stored in our database for station/object 7L2IWN-13. If no packets are shown the sender has not sent any weather packets the latest 10 day(s).
| Time | Temp. | Humidity | Pressure | Rain* | Wind** | Luminosity | Snow |
|---|---|---|---|---|---|---|---|
| 1777638141 | 12.22° C | 99% | 993.3 hPa | 0 mm | - | - | - |
| 1777637421 | 12.22° C | 99% | 993.4 hPa | 0 mm | - | - | - |
| 1777636700 | 12.22° C | 99% | 993.2 hPa | 0 mm | - | - | - |
| 1777635981 | 12.22° C | 99% | 992.7 hPa | 0 mm | - | - | - |
| 1777635261 | 12.22° C | 99% | 993.3 hPa | 0 mm | - | - | - |
| 1777634540 | 12.78° C | 99% | 992.8 hPa | 0 mm | - | - | - |
| 1777633821 | 12.78° C | 99% | 992.2 hPa | 0 mm | - | - | - |
| 1777633101 | 12.78° C | 99% | 991.6 hPa | 1.02 mm | - | - | - |
| 1777632381 | 12.78° C | 99% | 991 hPa | 2.54 mm | - | - | - |
| 1777631661 | 12.78° C | 99% | 991.1 hPa | 4.32 mm | - | - | - |
| 1777630941 | 13.33° C | 99% | 990.9 hPa | 4.83 mm | - | - | - |
| 1777630221 | 13.89° C | 99% | 991 hPa | 5.08 mm | - | - | - |
| 1777629500 | 14.44° C | 99% | 990.8 hPa | 4.06 mm | - | - | - |
| 1777628780 | 14.44° C | 99% | 991.1 hPa | 2.54 mm | - | - | - |
| 1777628061 | 14.44° C | 99% | 991.2 hPa | 0.76 mm | - | - | - |
| 1777627340 | 14.44° C | 99% | 991 hPa | 0.25 mm | - | - | - |
| 1777626621 | 14.44° C | 99% | 991 hPa | 0 mm | - | - | - |
| 1777625181 | 15° C | 99% | 990.9 hPa | 0 mm | - | - | - |
| 1777623741 | 15° C | 99% | 991.2 hPa | 0 mm | - | - | - |
| 1777623021 | 15° C | 98% | 991.4 hPa | 0 mm | - | - | - |
| 1777622300 | 15° C | 98% | 991.8 hPa | 0 mm | - | - | - |
| 1777621581 | 15° C | 98% | 991.9 hPa | 0 mm | - | - | - |
| 1777620860 | 15.56° C | 97% | 992.3 hPa | 0 mm | - | - | - |
| 1777620141 | 16.11° C | 95% | 992.5 hPa | 0 mm | - | - | - |
| 1777618701 | 16.67° C | 91% | 993 hPa | 0 mm | - | - | - |
* Rain latest hour (hover to see other rain measurements)
** Current wind speed in m/s (hover to see current wind gust speed)